Location: Pacheco
(37.9835°N, 122.0752°W)
Time: 15:26:47
(UTC+00:00)

Hubble Space Telescope - Visible Passes

Search period start: 21 June 2024 00:00
Search period end: 01 July 2024 00:00
Orbit: 510 x 514 km, 28.5° (Epoch: 21 June)

Date Brightness Start Highest point End Pass type
(mag) Time Alt. Az. Time Alt. Az. Time Alt. Az.
28 Jun 2.6 12:10:00 10° SSW 12:12:34 17° S 12:15:09 10° SE visible
29 Jun 2.5 11:51:12 12° SSW 11:53:21 18° S 11:56:03 10° SE visible
30 Jun 2.3 11:32:57 16° SSW 11:34:06 18° S 11:36:54 10° SE visible
